Weather History for PABL - January, 2013

Change the Weather History Date:

Thursday, January 10, 2013

  Actual Average (PASK) Record (PASK)
Temperature  
Mean Temperature 18 °F -  
Max Temperature 24 °F 1 °F 24 °F (2015)
Min Temperature 12 °F -8 °F -43 °F (2009)
Degree Days  
Heating Degree Days 47    
Moisture  
Dew Point 13 °F    
Average Humidity 85    
Maximum Humidity 93    
Minimum Humidity 79    
Precipitation  
Precipitation 0.00 in - - ()
Sea Level Pressure  
Sea Level Pressure 29.76 in    
Wind  
Wind Speed 17 mph (ESE)    
Max Wind Speed 26 mph    
Max Gust Speed 34 mph    
Visibility 8 miles    
Events      
Averages and records for this station are not official NWS values.
T = Trace of Precipitation, MM = Missing Value Source: NWS Daily Summary

Daily Weather History Graph

Daily Weather History Graph

Search for Another Location

Airport or City:

Trip Planner

Search our weather history database for the weather conditions in past years. The results will help you decide how hot, cold, wet, or windy it might be!

Date:

Astronomy

Jan. 10, 2013 Rise Set
Actual Time 11:49 AM AKST 3:55 PM AKST
Civil Twilight 10:26 AM AKST 5:18 PM AKST
Nautical Twilight 9:14 AM AKST 6:31 PM AKST
Astronomical Twilight 8:11 AM AKST 7:34 PM AKST
Moon 10:30 AM AKST (1/10) 3:30 PM AKST (1/10)
Length of Visible Light 6h 52m
Length of Day
4h 05m
Waning Crescent, 1% of the Moon is Illuminated
Jan 10
Waning Crescent
Jan 11
New
Jan 18
First Quarter
Jan 26
Full
Feb 3
Last Quarter

Hourly Weather History & Observations

Time (AKST) Temp. Windchill Dew Point Humidity Pressure Visibility Wind Dir Wind Speed Gust Speed Precip Events Conditions
12:16 AM 12.2 °F -1.0 °F 8.6 °F 85% 29.76 in 10.0 mi SE 10.4 mph 17.3 mph N/A   Overcast
12:36 AM 12.2 °F -6.3 °F 8.6 °F 85% 29.74 in 10.0 mi ESE 20.7 mph 27.6 mph N/A   Overcast
12:56 AM 12.2 °F -6.7 °F 8.6 °F 85% 29.72 in 10.0 mi ESE 21.9 mph 28.8 mph N/A   Overcast
1:16 AM 12.2 °F -8.2 °F 8.6 °F 85% 29.72 in 5.0 mi ESE 26.5 mph 34.5 mph N/A   Overcast
1:36 AM 12.2 °F -7.1 °F 8.6 °F 85% 29.72 in 5.0 mi East 23.0 mph 31.1 mph N/A   Overcast
1:56 AM 12.2 °F -6.3 °F 8.6 °F 85% 29.72 in 4.0 mi East 20.7 mph 29.9 mph N/A   Overcast
2:16 AM 12.2 °F -6.3 °F 8.6 °F 85% 29.72 in 3.0 mi East 20.7 mph 31.1 mph N/A   Overcast
2:36 AM 12.2 °F -6.7 °F 8.6 °F 85% 29.72 in 3.0 mi ESE 21.9 mph 32.2 mph N/A   Overcast
2:56 AM 12.2 °F -6.7 °F 8.6 °F 85% 29.71 in 5.0 mi ESE 21.9 mph 29.9 mph N/A   Overcast
3:16 AM 12.2 °F -5.3 °F 8.6 °F 85% 29.71 in 10.0 mi ESE 18.4 mph 29.9 mph N/A   Overcast
3:36 AM 12.2 °F -6.7 °F 8.6 °F 85% 29.70 in 10.0 mi ESE 21.9 mph 29.9 mph N/A   Overcast
3:56 AM 12.2 °F -7.5 °F 8.6 °F 85% 29.70 in 10.0 mi ESE 24.2 mph 31.1 mph N/A   Overcast
4:16 AM 14.0 °F -3.9 °F 8.6 °F 79% 29.71 in 8.0 mi ESE 20.7 mph 29.9 mph N/A   Overcast
4:36 AM 14.0 °F -3.9 °F 8.6 °F 79% 29.70 in 9.0 mi ESE 20.7 mph 32.2 mph N/A   Overcast
4:56 AM 14.0 °F -4.3 °F 8.6 °F 79% 29.70 in 10.0 mi East 21.9 mph 29.9 mph N/A   Mostly Cloudy
5:16 AM 14.0 °F -4.3 °F 10.4 °F 86% 29.70 in 8.0 mi ESE 21.9 mph 28.8 mph N/A   Overcast
5:36 AM 14.0 °F -3.0 °F 10.4 °F 86% 29.70 in 10.0 mi ESE 18.4 mph 27.6 mph N/A   Overcast
5:56 AM 14.0 °F -5.1 °F 10.4 °F 86% 29.69 in 10.0 mi ESE 24.2 mph 32.2 mph N/A   Overcast
6:16 AM 14.0 °F -3.9 °F 10.4 °F 86% 29.70 in 10.0 mi ESE 20.7 mph 28.8 mph N/A   Overcast
6:36 AM 14.0 °F -4.3 °F 10.4 °F 86% 29.70 in 4.0 mi East 21.9 mph 27.6 mph N/A   Overcast
6:56 AM 14.0 °F -4.3 °F 10.4 °F 86% 29.71 in 5.0 mi East 21.9 mph 27.6 mph N/A   Overcast
7:16 AM 14.0 °F -3.9 °F 10.4 °F 86% 29.71 in 3.0 mi East 20.7 mph 26.5 mph N/A   Overcast
7:36 AM 14.0 °F -3.9 °F 10.4 °F 86% 29.72 in 2.0 mi ESE 20.7 mph 29.9 mph N/A   Overcast
7:56 AM 14.0 °F -3.0 °F 10.4 °F 86% 29.73 in 1.8 mi East 18.4 mph 26.5 mph N/A   Overcast
8:16 AM 14.0 °F -2.5 °F 10.4 °F 86% 29.73 in 3.0 mi East 17.3 mph 23.0 mph N/A   Overcast
8:36 AM 14.0 °F -3.0 °F 10.4 °F 86% 29.73 in 3.0 mi East 18.4 mph 24.2 mph N/A   Overcast
8:56 AM 14.0 °F -2.0 °F 10.4 °F 86% 29.74 in 2.5 mi East 16.1 mph 23.0 mph N/A   Overcast
9:16 AM 15.8 °F -0.6 °F 10.4 °F 79% 29.74 in 3.0 mi ESE 18.4 mph 24.2 mph N/A   Overcast
9:36 AM 15.8 °F -1.1 °F 10.4 °F 79% 29.74 in 7.0 mi ESE 19.6 mph 24.2 mph N/A   Overcast
9:56 AM 15.8 °F 0.3 °F 10.4 °F 79% 29.75 in 9.0 mi East 16.1 mph 24.2 mph N/A   Overcast
10:16 AM 15.8 °F 1.4 °F 10.4 °F 79% 29.75 in 7.0 mi East 13.8 mph 19.6 mph N/A   Overcast
10:36 AM 15.8 °F 0.9 °F 10.4 °F 79% 29.75 in 7.0 mi East 15.0 mph 20.7 mph N/A   Overcast
10:56 AM 15.8 °F -0.6 °F 12.2 °F 86% 29.75 in 5.0 mi East 18.4 mph 24.2 mph N/A   Overcast
11:16 AM 15.8 °F 0.9 °F 12.2 °F 86% 29.76 in 2.5 mi East 15.0 mph 21.9 mph N/A   Overcast
11:36 AM 17.6 °F 3.2 °F 12.2 °F 79% 29.76 in 9.0 mi ESE 15.0 mph 25.3 mph N/A   Overcast
11:56 AM 17.6 °F 2.7 °F 14.0 °F 86% 29.77 in 10.0 mi ESE 16.1 mph - N/A   Overcast
12:16 PM 17.6 °F 2.7 °F 15.8 °F 93% 29.77 in 5.0 mi East 16.1 mph 21.9 mph N/A   Overcast
12:36 PM 17.6 °F 2.2 °F 14.0 °F 86% 29.77 in 7.0 mi ESE 17.3 mph 24.2 mph N/A   Overcast
12:56 PM 19.4 °F 4.5 °F 17.6 °F 93% 29.77 in 10.0 mi ESE 17.3 mph - N/A   Overcast
1:16 PM 21.2 °F 6.4 °F 17.6 °F 86% 29.77 in 10.0 mi ESE 18.4 mph 23.0 mph N/A   Overcast
1:36 PM 21.2 °F 7.8 °F 17.6 °F 86% 29.78 in 10.0 mi ESE 15.0 mph - N/A   Overcast
1:56 PM 23.0 °F 11.1 °F 19.4 °F 86% 29.79 in 10.0 mi SE 12.7 mph - N/A   Overcast
2:16 PM 23.0 °F 13.9 °F 19.4 °F 86% 29.80 in 10.0 mi ESE 8.1 mph - N/A   Overcast
2:36 PM 23.0 °F 14.7 °F 17.6 °F 80% 29.80 in 10.0 mi SE 6.9 mph - N/A   Mostly Cloudy
2:56 PM 21.2 °F 14.9 °F 17.6 °F 86% 29.81 in 10.0 mi SE 4.6 mph - N/A   Scattered Clouds
3:16 PM 21.2 °F 10.9 °F 17.6 °F 86% 29.81 in 10.0 mi SSE 9.2 mph - N/A   Clear
3:36 PM 19.4 °F 6.6 °F 15.8 °F 86% 29.81 in 10.0 mi SE 12.7 mph - N/A   Clear
3:56 PM 19.4 °F 8.6 °F 15.8 °F 86% 29.82 in 10.0 mi SE 9.2 mph - N/A   Clear
4:16 PM 21.2 °F 10.9 °F 17.6 °F 86% 29.82 in 10.0 mi SE 9.2 mph - N/A   Clear
4:36 PM 19.4 °F 7.9 °F 15.8 °F 86% 29.82 in 10.0 mi SE 10.4 mph - N/A   Clear
4:56 PM 19.4 °F 7.9 °F 17.6 °F 93% 29.83 in 10.0 mi ESE 10.4 mph - N/A   Clear
5:16 PM 19.4 °F 7.2 °F 15.8 °F 86% 29.83 in 10.0 mi SE 11.5 mph - N/A   Clear
5:36 PM 19.4 °F 4.5 °F 17.6 °F 93% 29.82 in 10.0 mi SE 17.3 mph - N/A   Clear
5:56 PM 21.2 °F 6.8 °F 19.4 °F 93% 29.82 in 10.0 mi SE 17.3 mph - N/A   Clear
6:16 PM 21.2 °F 7.3 °F 17.6 °F 86% 29.82 in 10.0 mi SE 16.1 mph - N/A   Clear
6:36 PM 21.2 °F 8.3 °F 19.4 °F 93% 29.82 in 10.0 mi SE 13.8 mph - N/A   Partly Cloudy
6:56 PM 24.8 °F 11.5 °F 21.2 °F 86% 29.82 in 10.0 mi SE 17.3 mph 21.9 mph N/A   Mostly Cloudy
7:16 PM 24.8 °F 12.9 °F 21.2 °F 86% 29.82 in 10.0 mi East 13.8 mph - N/A   Overcast
7:36 PM 21.2 °F 7.3 °F 17.6 °F 86% 29.81 in 10.0 mi East 16.1 mph 20.7 mph N/A   Overcast
7:56 PM 21.2 °F 6.4 °F 17.6 °F 86% 29.79 in 10.0 mi East 18.4 mph 23.0 mph N/A   Overcast
8:16 PM 21.2 °F 7.3 °F 15.8 °F 80% 29.79 in 10.0 mi East 16.1 mph 20.7 mph N/A   Overcast
8:36 PM 19.4 °F 6.0 °F 15.8 °F 86% 29.79 in 10.0 mi East 13.8 mph - N/A   Overcast
8:56 PM 19.4 °F 7.9 °F 15.8 °F 86% 29.79 in 10.0 mi ESE 10.4 mph - N/A   Overcast
9:16 PM 17.6 °F 10.7 °F 12.2 °F 79% 29.79 in 10.0 mi South 4.6 mph - N/A   Mostly Cloudy
9:36 PM 17.6 °F 3.7 °F 12.2 °F 79% 29.79 in 10.0 mi SE 13.8 mph - N/A   Clear
9:56 PM 15.8 °F 2.7 °F 12.2 °F 86% 29.78 in 10.0 mi SE 11.5 mph - N/A   Clear
10:16 PM 15.8 °F 0.3 °F 10.4 °F 79% 29.78 in 10.0 mi SE 16.1 mph - N/A   Clear
10:36 PM 15.8 °F 2.7 °F 10.4 °F 79% 29.79 in 10.0 mi SE 11.5 mph - N/A   Mostly Cloudy
10:56 PM 15.8 °F 2.7 °F 10.4 °F 79% 29.79 in 10.0 mi ESE 11.5 mph 17.3 mph N/A   Overcast
11:16 PM 15.8 °F 2.7 °F 10.4 °F 79% 29.77 in 10.0 mi SE 11.5 mph - N/A   Overcast
11:36 PM 15.8 °F -1.5 °F 10.4 °F 79% 29.75 in 10.0 mi ESE 20.7 mph 32.2 mph N/A   Overcast
11:56 PM 15.8 °F -2.3 °F 12.2 °F 86% 29.73 in 10.0 mi East 23.0 mph 32.2 mph N/A   Overcast